User: anonymous   Login
Location: Caltech
(34.1382°N, 118.1253°W)
Time: 02:12:27
(UTC-08:00)
Language:

SO-50 - Orbit

View from above orbital plane
View from above orbital plane
View from above satellite
View from above satellite

Ground track
Ground track

The orbit data is extracted from the following two-line orbital elements,

1 27607U 02058C   15031.04312967  .00000731  00000-0  12639-3 0  6508
2 27607 064.5544 257.4516 0073046 315.9667 043.5630 14.74406215651062
Epoch (UTC): 31 January 2015 01:02:06
Eccentricity: 0.0073046
inclination: 64.5544°
perigee height: 596 km
apogee height: 698 km
right ascension of ascending node: 257.4516°
argument of perigee: 315.9667°
revolutions per day: 14.74406215
mean anomaly at epoch: 43.5630°
orbit number at epoch: 65106

The dashed part of the orbit path shows where the satellite is in the earth's shadow,  

DLR